Vorticity
3 3 5 7 9 9 9 7 6 4 3 2 3 5 7 7 7 6 5 6 5 3 2 5 6 6 6 6 6 7 7 7 7 6 5 5 5 6 6 6 7 7 8 7 7 6 6 7 9 11 14 15 15 14 12 11 10 10 9 8 7 7 6 6 5 5 4 3 3 2 2 2 2 3 3 3 4 4 4 4 4 4 4 4 4 4 4 4 4 4 3 3 3 3 3 3 3 3 3 4 4 4 4
4 5 8 10 11 10 9 7 5 4 3 2 3 5 6 6 6 6 6 7 7 5 4 6 6 7 6 6 7 7 7 7 7 6 5 5 5 6 6 6 7 7 8 8 7 6 5 5 6 8 10 13 14 15 14 13 12 12 10 9 8 7 6 6 6 5 4 3 3 2 2 2 2 3 3 3 3 4 4 4 4 4 4 4 4 4 4 4 4 4 4 4 4 4 4 3 4 4 4 4 4 4 4
5 6 10 12 12 11 8 6 4 3 2 3 4 5 6 5 6 6 8 9 8 6 5 6 7 7 7 7 7 7 7 7 6 6 5 5 5 6 6 6 7 7 8 8 7 6 4 4 5 6 8 10 12 14 14 14 13 12 11 9 8 7 6 6 6 5 4 4 3 2 2 2 2 3 3 3 3 4 4 4 4 4 4 4 4 4 4 4 4 4 4 4 4 4 4 4 4 4 4 4 4 4 4
6 7 10 12 12 10 7 5 4 3 2 3 4 5 5 5 6 7 10 9 7 6 6 6 7 7 7 7 7 7 7 7 6 5 5 5 5 6 6 6 6 7 7 7 7 6 5 4 4 5 6 9 11 12 13 13 12 12 11 9 8 7 7 7 6 6 5 4 3 3 2 2 3 3 3 3 3 3 4 4 4 4 4 4 4 4 4 4 4 4 4 4 4 4 4 4 4 4 4 4 4 4 4
7 8 9 11 11 9 6 4 3 2 3 4 5 5 5 5 6 8 10 9 7 5 6 6 7 7 7 7 7 7 7 7 6 5 5 5 5 6 6 7 7 7 7 7 7 6 5 5 5 6 6 8 10 11 12 12 11 11 10 9 8 8 8 8 7 6 5 4 3 3 3 3 3 3 3 3 3 3 3 4 4 4 5 5 5 4 4 4 4 4 4 4 4 4 4 4 3 3 4 4 4 4 4
8 8 8 9 9 8 6 4 3 3 4 5 5 5 5 5 7 9 10 8 6 5 6 6 7 7 7 7 7 7 7 6 5 5 4 4 5 5 6 7 8 8 8 8 8 7 7 6 6 6 7 8 9 11 12 12 11 10 9 8 8 8 8 8 7 6 5 5 4 3 3 3 3 3 3 3 3 3 3 4 4 5 5 5 5 5 5 5 4 4 4 4 4 4 4 3 3 3 3 4 4 4 4
9 9 8 8 8 7 5 4 4 4 5 6 6 6 5 6 7 9 9 7 5 5 6 6 6 7 7 7 7 6 6 6 5 4 4 4 4 4 5 6 7 8 8 8 9 9 9 8 8 8 8 9 9 9 10 11 12 11 10 9 8 8 8 8 7 7 6 5 4 4 3 3 3 3 3 3 3 3 4 4 4 4 5 5 5 5 5 5 5 4 4 4 4 4 3 3 3 3 4 4 4 4 4
9 9 8 7 7 6 5 4 4 5 6 7 6 6 6 6 7 8 7 6 5 6 6 6 7 7 7 6 6 6 6 5 5 4 4 4 4 4 4 4 5 6 7 8 9 10 10 9 9 10 10 10 9 9 9 10 11 12 11 10 9 8 8 8 7 7 6 5 4 4 3 3 3 3 3 3 3 3 3 3 4 4 4 5 5 6 6 5 5 5 4 4 4 4 4 4 4 4 4 4 4 4 4
9 8 7 7 6 5 4 4 4 5 6 6 6 6 6 6 7 7 6 5 6 6 7 7 7 7 7 6 6 6 6 5 5 4 4 4 4 4 4 3 4 4 6 7 9 10 10 10 10 11 11 11 11 10 9 9 10 11 11 11 10 9 8 8 7 7 6 5 5 4 4 3 3 3 3 3 3 3 3 3 4 4 4 5 5 6 6 6 6 6 5 5 5 4 4 4 4 4 4 4 4 4 4
9 8 6 6 5 4 3 3 4 5 6 6 5 6 6 6 6 6 6 5 6 7 7 7 7 7 7 6 6 5 5 5 5 4 4 4 5 5 4 4 3 3 4 6 7 9 9 9 10 10 11 12 12 11 10 9 9 9 10 10 10 10 9 8 8 7 7 6 5 5 4 4 3 3 3 3 3 3 3 3 4 4 4 5 5 6 6 6 6 6 6 5 5 5 5 5 5 5 4 4 4 4 4
8 7 5 4 4 3 2 3 4 5 6 5 5 5 5 6 6 6 6 6 6 7 8 7 7 7 7 6 6 5 5 5 5 4 4 5 5 5 6 5 4 4 3 4 6 7 8 8 9 10 11 11 12 12 12 11 10 9 9 9 9 9 9 9 9 8 8 7 6 5 5 4 4 4 3 3 3 3 3 4 4 4 4 5 5 5 6 6 6 6 6 6 5 5 5 5 5 5 5 5 4 4 4
7 6 4 3 2 2 2 3 4 5 5 5 5 5 5 6 6 6 6 6 6 7 8 8 8 7 7 6 6 5 5 5 5 4 4 5 5 6 6 6 6 5 4 4 4 5 5 6 7 8 9 10 11 12 12 12 12 11 10 9 9 8 8 8 8 8 8 8 7 6 6 5 5 4 4 4 4 4 4 4 4 4 4 4 5 5 5 6 6 6 6 6 5 5 5 5 5 5 5 5 4 4 4
6 4 3 2 1 1 2 4 5 5 5 5 5 5 5 6 6 6 5 6 7 8 8 8 8 7 7 6 6 5 5 5 5 4 4 5 5 6 7 7 7 6 5 5 5 4 4 4 5 6 7 9 10 11 11 12 12 12 12 12 11 10 8 8 8 8 8 8 8 7 7 6 6 5 5 5 4 4 4 4 4 4 4 4 5 5 5 6 6 6 7 6 6 5 5 5 5 5 5 5 4 4 4
4 3 2 2 1 2 3 5 5 6 5 5 5 5 5 6 6 6 5 6 7 8 8 8 8 7 7 6 6 5 5 5 4 4 4 4 5 6 6 7 7 7 6 6 5 5 4 4 3 4 5 7 8 9 10 10 11 12 12 13 13 12 11 9 8 8 8 8 8 8 7 7 7 6 6 5 5 5 4 4 4 4 4 4 5 5 5 6 6 6 7 7 6 6 5 5 5 5 5 5 5 4 4
4 3 3 2 2 3 5 6 6 6 6 5 5 5 5 5 5 5 6 7 7 8 8 8 8 7 7 6 6 5 5 5 4 4 4 4 5 5 6 6 6 6 6 6 6 6 5 4 3 3 3 5 6 8 8 9 10 10 11 12 13 13 12 11 10 9 9 8 8 8 8 7 7 7 6 6 6 5 5 5 5 5 5 5 5 5 5 5 6 6 6 7 7 6 6 6 6 5 6 5 5 5 5
5 4 4 4 4 5 6 7 7 6 6 6 5 5 5 5 5 6 6 7 8 8 8 8 8 7 7 6 6 5 5 5 4 4 4 4 4 4 5 5 5 6 6 6 6 6 6 6 4 3 2 3 5 6 7 7 8 9 10 11 11 12 12 12 12 11 10 9 9 8 8 8 8 7 7 7 6 6 5 5 5 5 5 5 5 5 5 5 5 6 6 6 6 6 6 6 6 6 6 6 6 5 5
7 6 5 5 6 6 7 7 7 7 7 6 6 6 6 6 6 6 7 8 8 8 8 8 8 7 7 6 6 6 5 5 4 4 4 4 4 4 4 5 5 5 5 6 6 6 6 6 6 4 3 3 4 5 6 6 6 7 8 9 10 10 11 11 12 11 11 10 10 9 9 9 8 8 7 7 7 6 6 6 5 5 5 5 5 5 5 5 5 5 6 6 6 6 6 6 6 6 6 6 6 5 5
7 6 6 6 6 7 8 8 8 8 7 7 7 7 6 6 7 7 7 8 8 8 8 8 7 7 7 6 6 6 5 5 4 4 4 4 4 4 4 4 4 5 5 5 5 5 6 6 6 5 4 3 3 4 5 5 5 5 6 7 7 8 9 10 10 11 11 11 10 10 10 9 9 8 8 7 7 7 6 6 5 5 5 5 5 5 5 5 5 5 5 6 6 7 7 7 7 6 6 6 6 6 5
6 6 6 6 7 7 8 8 8 8 8 7 7 6 6 7 7 7 8 8 8 8 8 8 7 7 7 6 6 6 6 5 5 4 4 4 4 4 4 4 4 4 4 4 4 4 4 5 5 5 5 4 4 4 5 5 5 5 5 5 6 6 7 8 8 9 10 10 11 10 10 10 10 9 9 8 8 7 7 6 6 5 5 5 5 5 5 5 5 5 5 6 6 6 7 7 7 7 7 6 6 6 6
6 6 6 7 7 8 8 8 8 8 8 7 7 7 7 8 8 7 7 7 7 7 7 7 7 7 7 6 6 6 6 6 5 5 4 4 4 4 4 4 4 4 4 4 4 4 4 4 4 4 4 4 4 4 5 6 5 5 4 4 5 5 5 6 6 7 8 9 10 10 10 11 10 10 10 10 9 9 8 7 7 6 6 6 6 5 5 5 5 5 5 5 6 6 6 6 7 7 7 7 7 6 6
6 6 7 7 7 8 8 8 8 8 7 7 7 7 8 8 7 7 7 7 7 7 7 7 7 7 7 6 6 6 6 6 5 5 4 4 4 4 4 4 3 3 3 3 3 3 3 3 3 4 4 4 4 4 5 6 6 5 5 4 4 4 4 5 5 5 6 6 7 8 9 10 10 11 11 11 11 10 10 9 9 8 8 7 7 7 6 6 6 6 5 5 5 5 6 6 6 6 6 6 6 6 6
6 6 7 7 8 8 8 8 8 7 7 7 7 8 8 8 7 6 6 7 6 6 6 7 7 7 6 6 6 6 6 6 5 5 4 4 4 4 3 3 3 3 3 2 2 2 2 3 3 3 3 3 3 3 4 5 6 5 5 5 5 4 4 4 4 4 5 5 5 6 6 7 8 9 10 10 11 11 11 11 10 10 9 9 8 8 7 7 7 6 6 6 6 6 6 6 6 6 6 6 6 6 6
7 7 7 8 8 8 8 8 8 7 7 7 7 8 8 7 6 5 6 7 6 6 6 6 6 6 6 6 5 5 6 5 5 5 5 4 4 3 3 3 3 3 2 2 2 2 2 2 2 2 2 2 2 2 3 4 5 5 4 4 4 4 4 4 4 4 4 4 4 4 4 5 5 6 7 7 8 9 10 11 11 11 10 10 9 9 8 8 8 7 7 7 6 6 6 6 6 6 6 6 6 6 6
7 8 8 8 8 8 8 8 7 7 6 7 8 8 8 7 6 5 6 7 6 6 5 5 6 6 6 5 5 5 6 5 5 5 5 5 4 3 3 3 3 2 2 2 2 2 2 2 2 2 2 2 1 2 3 4 4 4 3 4 4 4 4 4 4 4 4 4 4 4 4 4 4 4 4 5 5 6 7 8 9 10 10 10 10 10 10 9 9 8 8 8 7 7 7 7 6 6 6 6 6 6 6
8 8 9 9 9 9 8 7 7 7 6 7 8 8 8 7 6 5 6 7 6 5 4 4 5 6 6 5 5 5 6 6 5 5 5 5 5 4 3 3 3 3 2 2 2 2 2 2 2 2 2 2 1 2 3 4 3 3 2 3 3 3 4 4 4 4 5 5 4 4 4 4 4 3 3 3 4 4 4 5 6 6 7 8 9 9 9 9 9 9 9 9 9 9 9 8 8 7 7 6 6 6 6
9 9 10 10 10 9 8 7 7 6 6 6 7 7 6 6 5 6 6 6 5 5 4 4 5 5 5 5 5 5 6 6 6 6 6 5 5 4 4 3 3 3 2 2 2 2 2 2 2 2 2 2 2 2 3 4 3 3 2 2 2 2 3 3 4 4 4 4 5 5 5 4 4 4 4 3 3 3 3 3 4 4 4 5 6 6 7 7 8 8 9 9 9 10 10 10 10 10 9 8 7 7 6
10 10 10 10 10 9 8 7 7 6 6 6 6 6 5 5 5 6 7 4 4 4 5 4 4 5 4 5 5 6 6 6 6 6 6 6 5 5 4 3 3 3 2 3 3 3 3 3 3 3 3 2 2 3 4 4 3 3 2 2 2 2 2 2 3 3 4 4 4 4 4 4 4 4 4 4 3 3 3 3 3 3 3 3 3 4 4 5 5 6 6 7 7 8 9 10 11 11 11 11 10 9 8
11 10 8 8 8 8 8 7 7 7 6 6 5 5 5 5 5 5 4 3 4 5 6 5 5 5 5 5 5 6 6 6 6 6 7 6 5 5 4 4 3 2 2 2 3 3 3 4 4 4 3 3 4 5 5 5 4 3 3 2 2 2 2 2 2 2 3 3 3 4 4 4 4 4 4 4 4 4 3 3 3 3 3 3 3 3 3 3 4 4 4 5 5 5 6 7 8 9 10 11 11 11 10
9 8 7 7 8 8 7 7 7 7 7 6 6 6 5 5 4 3 1 3 4 6 6 6 6 6 6 5 5 5 5 5 6 6 6 5 5 4 4 4 3 2 1 1 2 3 4 4 4 4 4 4 4 5 5 5 5 4 4 3 3 3 2 2 2 2 2 2 2 2 3 3 3 4 4 4 4 4 4 4 3 3 3 3 3 3 3 3 3 4 4 4 4 4 4 4 5 5 6 7 8 9 9
5 5 5 6 7 8 8 7 7 7 8 7 6 6 7 6 3 1 2 5 6 7 5 6 6 6 6 6 5 5 5 5 5 5 5 4 4 4 4 4 3 2 1 1 1 2 3 4 4 4 3 3 3 3 3 4 4 4 4 4 4 3 3 2 2 2 2 2 2 2 2 2 2 3 4 4 4 4 4 4 3 3 3 3 3 3 3 3 4 4 4 4 4 4 4 4 4 4 4 4 5 5 6
1 2 1 3 6 7 7 7 6 7 8 7 7 7 9 6 1 -2 6 6 6 6 5 5 6 6 6 6 6 5 5 4 4 4 4 4 4 4 4 4 3 3 2 1 1 1 2 3 3 3 3 3 2 2 2 1 2 2 3 4 4 4 3 3 3 2 2 2 1 1 1 1 1 2 2 3 4 5 5 4 4 4 3 3 3 3 3 3 4 4 4 3 3 3 3 4 3 3 3 3 3 3 3
-2 -1 -0 2 4 6 7 7 6 6 8 8 8 8 9 6 0 -2 9 4 2 3 4 5 5 6 6 6 5 5 4 4 3 3 3 3 3 3 4 5 5 3 2 1 1 1 1 1 1 2 2 3 3 3 3 2 1 0 1 2 3 4 4 4 4 3 3 2 2 2 1 1 1 1 1 2 3 4 5 5 5 5 5 4 4 4 3 3 3 3 3 2 2 2 2 2 3 3 3 3 3 3 3
1 1 0 2 5 8 9 7 7 9 12 10 9 8 9 7 4 3 9 3 1 1 2 3 4 4 5 4 4 4 4 3 3 3 3 2 2 2 2 4 4 3 1 1 0 1 0 0 0 1 2 3 3 4 4 3 2 1 0 -0 0 1 2 3 4 4 4 4 3 3 2 2 2 1 1 1 2 3 4 5 5 5 4 4 4 4 3 3 2 1 1 1 1 1 1 1 1 1 1 2 3 3 3
9 12 3 5 8 10 11 9 10 12 12 10 9 10 11 11 9 7 7 3 2 1 2 4 5 5 3 3 3 3 3 2 2 2 1 1 1 1 -0 -0 1 1 1 1 1 1 0 -0 0 1 2 3 3 3 3 3 3 3 2 1 -0 -1 -1 1 2 3 4 4 4 4 3 3 3 2 2 2 2 3 3 4 4 4 3 3 2 2 2 1 0 -0 -1 -0 0 0 0 0 0 0 0 1 2 3 4
17 21 6 7 10 12 11 8 13 16 8 9 13 17 20 17 13 9 6 6 6 5 6 6 6 6 6 5 4 3 2 3 2 2 3 2 1 1 -0 -0 0 0 1 2 2 2 1 1 1 2 4 4 3 2 2 2 3 3 3 3 2 1 -0 -0 1 2 4 4 4 4 4 4 4 4 4 4 3 3 4 4 4 4 4 2 2 1 1 1 0 0 0 1 1 1 1 1 1 0 -0 -0 0 1 3
15 18 7 7 10 11 7 7 19 26 12 13 17 19 11 14 17 16 7 8 8 9 14 9 4 2 3 4 3 2 2 3 3 2 3 3 3 2 1 1 0 0 1 2 3 3 2 2 3 4 5 4 2 1 2 2 2 2 2 3 3 3 2 1 1 2 3 4 5 5 5 5 6 6 6 6 6 6 5 6 6 6 5 5 4 3 3 4 4 5 5 4 4 4 4 3 2 1 -0 -1 -1 -0 1
16 17 12 7 7 6 1 4 20 34 28 20 7 -10 -29 5 27 32 16 12 9 8 14 11 4 -1 -2 -1 -1 -0 2 3 2 2 2 3 3 3 3 2 1 1 1 2 3 3 3 2 1 2 3 2 0 -1 2 3 3 3 3 3 4 4 4 4 4 3 3 4 4 5 5 6 6 7 8 8 8 7 7 7 7 7 7 7 6 5 4 4 5 6 5 5 5 4 4 3 3 1 0 -2 -2 -2 -1
16 23 26 13 5 -0 -7 -8 12 41 69 36 -12 -48 -46 1 25 32 26 25 13 3 5 6 5 2 1 -1 -2 -1 1 2 3 3 3 4 4 4 4 3 2 2 2 2 2 1 1 -1 -1 -0 2 0 -2 -3 0 3 5 6 5 4 4 5 5 5 5 4 4 4 4 4 5 5 6 7 8 8 8 7 6 6 6 6 6 6 5 5 5 4 3 3 3 3 3 2 1 1 1 0 -1 -2 -2 -2 -0
12 20 35 21 9 -1 -10 -24 -12 27 98 56 -17 -64 -28 -4 3 4 11 26 19 5 -3 -2 1 5 8 3 0 -0 2 3 4 5 5 6 5 5 5 4 4 4 4 3 2 1 -2 -2 -1 2 3 1 -2 -2 -1 1 3 4 5 5 5 5 5 5 6 6 5 4 4 4 4 5 6 6 7 6 5 4 4 3 3 2 2 2 3 3 3 3 2 2 2 1 1 1 0 -0 -0 -1 -1 -1 -0 1 2
6 9 23 16 10 6 2 -21 -22 -2 35 29 -11 -37 -4 0 -4 -8 -2 15 18 12 1 -2 -4 -2 6 5 3 2 3 5 6 7 7 7 7 6 6 6 6 6 6 6 5 4 0 -1 0 2 3 4 2 -0 -3 -0 0 -1 -3 -0 3 4 4 4 5 6 5 4 4 4 4 5 5 5 5 4 2 1 1 0 -0 -0 -0 0 0 1 1 1 1 1 1 1 1 1 0 0 -0 -0 0 1 1 2 2
-7 -2 6 1 2 7 14 3 -1 -1 1 1 -1 -1 5 2 -2 -4 2 6 10 12 6 4 -0 -4 -1 3 4 4 5 6 6 7 7 7 7 7 6 6 6 6 7 7 7 7 4 2 1 1 3 6 6 3 -1 2 2 -1 -6 -5 -2 1 2 2 3 4 4 4 4 5 6 6 6 6 5 4 2 1 0 0 0 0 0 0 0 1 1 1 1 1 1 1 1 1 1 1 1 1 2 2 2 2 2
-28 -13 1 -2 -2 1 9 12 10 5 -3 -1 1 4 6 6 2 -0 2 -1 1 4 4 5 5 4 1 3 4 4 5 5 5 5 5 5 5 5 5 5 5 6 6 6 7 7 6 5 3 3 3 6 6 5 4 6 6 5 1 -1 -1 -0 0 -0 0 1 1 2 4 6 7 8 8 7 7 6 4 3 3 2 2 1 1 1 2 2 2 2 1 1 1 1 1 2 2 2 2 2 2 2 2 2 2
-33 -16 2 4 3 1 1 3 1 -2 -8 -6 -3 1 4 4 5 5 3 -1 -2 -2 -1 0 2 3 3 3 3 4 4 4 4 4 4 3 2 2 2 3 3 3 4 4 4 4 5 5 4 4 4 4 5 5 5 6 7 7 6 5 4 3 2 -0 -1 -2 -1 0 2 5 7 8 8 7 6 5 4 3 2 1 0 -0 0 1 2 2 2 2 1 -0 -0 1 2 3 3 2 2 2 2 2 2 2 3
-10 -4 4 4 2 -0 -2 -0 -2 -4 -6 -5 -4 -1 2 2 4 5 5 3 1 0 0 1 2 3 4 3 3 3 3 2 3 3 3 2 2 1 1 1 1 1 2 2 2 2 2 2 3 3 3 3 3 3 4 4 5 5 6 6 7 6 5 2 0 -2 -2 -1 2 4 6 6 6 5 4 1 1 1 1 0 -0 -0 -1 -1 -1 -0 0 1 0 0 1 3 4 4 4 4 3 2 2 2 2 3 4
5 4 4 1 -2 -4 -4 -2 1 2 3 3 3 2 3 3 4 5 6 6 6 6 6 6 6 6 6 5 5 4 3 2 2 1 2 2 2 1 1 1 1 1 1 1 1 1 1 1 1 1 1 2 2 1 1 2 2 3 4 5 6 6 6 5 2 0 -1 0 2 4 5 5 4 3 2 -0 0 1 1 1 1 1 -1 -2 -2 -2 -0 1 2 3 5 6 7 7 7 6 5 4 3 3 3 4 6
1 2 4 3 1 -1 -2 0 3 6 7 8 7 7 5 5 5 6 7 7 8 9 10 10 10 9 9 8 8 7 7 6 4 3 3 3 2 2 2 2 2 2 2 2 2 2 2 2 1 1 1 1 1 1 1 2 2 3 4 5 5 6 6 5 4 3 2 2 2 3 3 4 4 4 4 4 3 2 1 1 1 1 -0 -1 -1 -0 1 3 5 6 8 9 10 10 9 8 7 6 5 5 6 8 9
1 3 5 7 7 6 5 5 5 7 8 9 9 9 8 7 7 7 7 8 8 9 10 11 12 12 11 11 11 11 11 10 9 8 7 6 6 5 4 4 4 4 4 4 4 4 4 4 4 3 2 2 2 3 3 3 4 5 5 5 6 6 6 6 5 5 4 5 5 5 5 5 5 5 6 7 7 5 3 2 2 1 0 0 1 2 4 5 7 9 10 10 10 10 10 9 8 8 8 9 10 11 13
8 6 7 8 8 8 7 7 7 7 7 8 9 9 10 9 9 8 8 8 8 8 9 9 10 11 12 12 12 12 12 12 12 12 12 11 10 9 8 8 7 7 7 7 7 7 7 6 6 6 5 6 6 6 6 7 7 7 7 7 7 7 7 6 6 7 7 7 7 7 7 7 7 7 7 8 8 7 6 4 3 2 1 1 3 4 6 7 8 9 10 10 10 10 9 9 9 9 9 9 10 10 10
9 7 7 7 7 7 7 7 7 7 7 7 8 8 9 9 9 9 8 9 9 8 8 8 8 8 9 10 10 11 11 11 12 12 12 13 13 12 11 11 11 10 10 10 10 10 9 9 9 8 9 9 9 9 10 10 9 9 9 8 8 8 7 7 8 9 9 9 8 8 8 8 8 8 8 8 7 6 5 3 2 2 2 3 4 6 7 8 9 9 10 10 10 10 10 10 10 10 10 11 11 11 11
6 6 6 6 6 6 6 6 6 6 7 7 7 7 8 8 8 9 9 9 9 8 8 8 8 8 8 8 9 9 9 10 10 10 10 10 10 11 10 8 8 9 10 10 10 10 10 10 10 10 10 10 10 10 10 10 10 9 9 9 8 8 8 9 9 10 10 9 9 9 9 9 9 9 8 7 6 5 3 2 2 3 4 5 6 8 9 9 9 10 10 10 10 10 10 10 10 10 10 10 10 9 10
4 3 3 5 6 6 6 6 6 6 7 7 8 8 7 7 8 8 8 8 8 8 9 9 8 8 8 8 8 8 9 9 9 9 9 8 8 9 9 10 9 9 9 9 9 9 10 10 10 10 9 9 9 9 9 9 8 8 8 8 8 9 9 9 9 9 9 9 9 9 9 9 9 9 8 7 6 5 4 4 4 5 6 8 9 10 10 10 10 10 10 10 10 10 10 9 9 9 9 9 8 7 6
-2 -0 2 4 5 5 6 6 6 6 7 7 8 8 8 8 8 7 7 8 8 8 8 8 8 8 8 7 7 7 8 8 9 9 9 8 8 7 7 8 9 9 9 9 9 9 9 9 9 8 8 8 8 8 8 7 7 7 7 8 8 8 8 7 7 7 7 7 7 8 8 8 8 8 7 7 6 6 6 6 7 8 9 9 10 11 11 10 10 10 10 10 9 9 8 7 7 7 7 7 7 7 7
-2 0 3 4 4 4 5 5 5 5 6 6 7 8 8 8 8 8 8 7 7 7 6 7 7 7 7 7 6 6 7 7 8 8 7 7 7 6 6 6 7 7 8 8 8 8 8 8 8 8 8 8 7 7 7 7 7 6 6 6 6 6 6 6 6 6 6 6 6 6 6 6 6 6 6 6 7 7 7 8 8 9 9 9 9 9 9 9 8 8 8 8 7 7 7 6 6 6 6 6 6 6 6
3 4 4 4 4 4 4 4 4 4 5 5 5 6 7 8 8 8 8 7 7 6 6 6 6 6 6 6 6 6 6 6 6 6 6 6 6 6 7 7 7 6 6 6 6 6 7 6 6 6 7 6 6 6 5 6 5 5 5 5 5 5 5 5 5 5 6 6 6 6 6 6 6 6 6 7 7 8 8 8 8 8 8 7 7 7 6 6 6 5 5 5 5 5 5 5 5 5 4 4 4 5 6
5 4 4 4 4 4 4 4 4 4 4 4 5 5 6 7 7 8 8 8 7 7 7 6 6 6 6 5 5 5 5 5 6 6 6 6 6 6 6 6 5 5 6 6 7 6 5 5 5 5 5 5 4 4 5 5 4 4 5 5 4 4 4 4 5 5 6 5 5 6 6 6 7 7 7 7 7 7 7 7 7 7 7 7 7 7 6 5 4 4 4 4 4 5 5 5 5 4 4 3 3 4 4
5 5 5 5 5 5 5 5 5 5 5 5 5 5 5 6 7 7 8 8 8 8 7 7 7 6 6 6 5 5 5 5 5 6 6 6 6 6 6 6 6 6 5 6 7 7 6 5 5 5 6 5 4 4 4 4 4 4 5 5 4 4 4 5 5 5 6 6 6 6 6 7 7 7 7 7 7 7 7 7 7 7 7 8 8 7 6 6 5 5 5 6 6 6 6 6 5 5 4 4 4 4 4
6 6 5 6 6 6 6 6 6 5 5 5 5 5 5 6 6 7 7 8 8 8 8 8 7 7 7 7 6 6 6 6 6 6 6 6 7 7 7 7 7 7 6 6 6 7 7 6 6 6 4 5 5 5 4 5 5 5 5 5 5 5 5 6 6 6 6 7 7 7 7 6 6 6 6 7 7 7 6 6 6 7 7 7 7 7 6 6 6 6 6 6 5 5 5 4 4 5 5 5 5 5 5
6 6 6 6 6 6 6 6 6 6 6 6 6 6 6 6 6 6 6 7 7 8 8 8 7 7 7 7 7 7 7 7 7 7 7 7 7 7 7 7 8 8 8 7 6 6 6 7 7 7 5 6 7 8 6 5 5 6 6 6 6 6 6 6 6 7 7 7 7 7 7 6 6 6 6 6 6 6 6 6 6 6 6 7 7 6 6 6 6 6 6 6 5 4 2 2 2 2 2 4 5 6 5
6 6 6 6 6 6 6 6 6 6 6 6 6 6 6 6 6 6 6 6 7 7 7 7 7 7 7 7 7 7 7 7 7 7 8 7 7 7 7 7 7 7 8 8 8 7 6 6 6 6 5 5 5 7 9 8 7 6 6 6 6 6 6 7 7 7 7 7 7 7 7 7 6 6 6 6 6 6 6 6 6 6 6 6 6 6 6 6 6 7 8 9 9 8 8 6 5 4 4 5 5 4 2
6 6 6 6 6 6 6 6 6 6 6 6 6 6 7 7 7 6 6 6 7 7 7 7 7 7 7 7 7 7 7 7 7 7 7 7 7 7 7 7 7 7 7 7 7 8 8 8 6 5 6 6 4 3 5 7 7 7 6 6 6 6 6 6 6 6 6 6 6 6 6 6 6 6 6 6 6 6 6 6 6 6 6 6 6 6 5 6 6 6 6 7 7 8 8 7 6 6 6 7 6 5 5
5 5 5 5 5 6 6 6 6 6 6 6 6 7 7 7 7 7 7 7 7 7 7 7 7 7 7 7 7 7 7 7 7 7 6 7 7 7 7 7 7 7 7 7 7 7 8 8 8 7 7 6 5 5 2 3 5 6 7 6 6 6 6 6 6 6 6 6 6 6 6 6 6 6 6 6 6 6 6 6 6 6 6 6 6 6 6 6 6 6 6 6 5 5 5 5 4 5 7 7 7 7 8
Height
3158 3158 3159 3159 3159 3160 3160 3161 3161 3162 3162 3162 3163 3163 3164 3164 3164 3165 3165 3165 3166 3166 3166 3166 3166 3166 3166 3166 3166 3166 3166 3166 3166 3166 3166 3166 3166 3166 3166 3165 3165 3165 3166 3166 3166 3166 3166 3166 3166 3166 3166 3166 3167 3167 3168 3168 3169 3169 3170 3170 3171 3171 3172 3172 3173 3174 3174 3175 3175 3176 3176 3177 3177 3178 3178 3178 3179 3179 3179 3179 3180 3180 3180 3180 3180 3180 3181 3181 3181 3181 3181 3181 3182 3182 3182 3182 3182 3182 3182 3182 3182 3181 3182
3157 3158 3158 3159 3159 3159 3160 3160 3161 3161 3162 3162 3162 3162 3163 3163 3164 3164 3165 3165 3165 3165 3165 3166 3166 3166 3166 3166 3166 3166 3166 3166 3166 3166 3166 3166 3166 3166 3166 3165 3165 3165 3166 3166 3166 3166 3166 3166 3166 3166 3166 3167 3167 3168 3168 3169 3169 3169 3170 3170 3171 3171 3172 3172 3173 3174 3174 3175 3175 3176 3176 3176 3177 3178 3178 3178 3179 3179 3179 3179 3180 3180 3180 3180 3180 3181 3181 3181 3181 3181 3181 3182 3182 3182 3182 3182 3182 3182 3182 3182 3182 3182 3181
3156 3157 3157 3158 3159 3159 3159 3160 3160 3161 3161 3161 3162 3162 3162 3163 3163 3164 3164 3164 3165 3165 3165 3165 3165 3165 3165 3166 3166 3166 3166 3166 3166 3166 3166 3166 3166 3166 3166 3166 3165 3166 3166 3166 3166 3166 3166 3166 3166 3166 3166 3167 3167 3168 3168 3169 3169 3169 3170 3170 3171 3171 3172 3173 3173 3174 3174 3175 3175 3176 3176 3176 3177 3178 3178 3179 3179 3179 3179 3180 3180 3180 3180 3180 3181 3181 3181 3181 3181 3181 3181 3182 3182 3182 3182 3182 3182 3182 3182 3182 3182 3182 3182
3155 3156 3157 3157 3158 3158 3159 3159 3160 3160 3160 3161 3161 3161 3162 3162 3163 3163 3164 3164 3164 3164 3165 3165 3165 3165 3165 3165 3165 3166 3166 3166 3166 3166 3166 3166 3166 3166 3166 3166 3165 3166 3166 3166 3166 3165 3165 3165 3166 3166 3166 3167 3167 3168 3168 3169 3169 3169 3170 3170 3171 3172 3172 3173 3173 3174 3174 3175 3175 3176 3177 3177 3178 3178 3178 3179 3179 3179 3179 3180 3180 3180 3180 3180 3181 3181 3181 3181 3181 3181 3182 3182 3182 3182 3182 3182 3182 3182 3182 3182 3182 3182 3182
3154 3155 3156 3157 3157 3158 3159 3159 3159 3159 3160 3160 3160 3161 3161 3162 3162 3163 3163 3164 3164 3164 3164 3164 3164 3165 3165 3165 3165 3165 3165 3166 3166 3166 3166 3166 3166 3166 3166 3166 3165 3165 3165 3165 3165 3165 3165 3166 3166 3166 3166 3167 3167 3168 3168 3169 3169 3169 3170 3171 3171 3172 3172 3173 3173 3174 3174 3175 3175 3176 3177 3178 3178 3178 3178 3179 3179 3179 3179 3180 3180 3180 3180 3181 3181 3181 3181 3181 3181 3182 3182 3182 3182 3182 3182 3182 3182 3182 3182 3182 3182 3182 3182
3154 3154 3155 3156 3156 3157 3158 3158 3159 3159 3159 3159 3160 3160 3161 3161 3162 3162 3163 3163 3164 3164 3164 3164 3164 3164 3164 3165 3165 3165 3165 3165 3166 3166 3166 3166 3166 3166 3166 3166 3166 3165 3165 3165 3165 3166 3166 3166 3166 3166 3167 3167 3168 3168 3168 3169 3169 3170 3170 3171 3171 3172 3172 3173 3173 3174 3174 3175 3176 3176 3177 3178 3179 3179 3178 3179 3179 3179 3179 3180 3180 3180 3180 3181 3181 3181 3181 3181 3181 3182 3182 3182 3182 3182 3182 3182 3182 3182 3182 3182 3182 3182 3182
3153 3154 3154 3155 3156 3156 3157 3157 3158 3158 3159 3159 3159 3160 3160 3161 3161 3162 3162 3163 3163 3164 3164 3164 3164 3164 3164 3164 3165 3165 3165 3165 3165 3166 3166 3166 3166 3166 3166 3166 3166 3166 3166 3166 3166 3166 3166 3166 3166 3166 3167 3167 3168 3168 3168 3169 3169 3169 3170 3171 3171 3172 3172 3173 3173 3174 3174 3175 3176 3176 3176 3177 3178 3178 3178 3179 3179 3179 3179 3179 3180 3180 3180 3181 3181 3181 3181 3181 3181 3181 3182 3182 3182 3182 3182 3182 3182 3182 3182 3182 3182 3182 3182
3152 3153 3154 3154 3155 3155 3156 3157 3157 3158 3158 3158 3159 3159 3160 3160 3161 3161 3162 3162 3163 3163 3163 3164 3164 3164 3164 3164 3164 3165 3165 3165 3165 3165 3166 3166 3166 3166 3166 3166 3166 3166 3166 3166 3166 3166 3166 3166 3166 3167 3167 3168 3168 3168 3168 3169 3169 3169 3170 3171 3171 3172 3172 3173 3173 3174 3174 3175 3175 3176 3176 3176 3177 3178 3178 3178 3179 3179 3179 3179 3180 3180 3180 3180 3181 3181 3181 3181 3181 3181 3181 3182 3182 3182 3182 3182 3182 3182 3182 3182 3182 3182 3182
3151 3152 3153 3153 3154 3154 3155 3156 3156 3157 3158 3158 3158 3159 3159 3160 3160 3161 3161 3162 3162 3163 3163 3163 3163 3164 3164 3164 3164 3164 3165 3165 3165 3165 3165 3166 3166 3166 3166 3167 3167 3167 3166 3166 3166 3166 3166 3166 3167 3167 3167 3168 3168 3168 3168 3169 3169 3169 3170 3170 3171 3172 3172 3173 3173 3174 3174 3175 3175 3176 3176 3176 3177 3177 3178 3178 3179 3179 3179 3179 3179 3180 3180 3180 3181 3181 3181 3181 3181 3181 3181 3181 3181 3181 3182 3182 3182 3182 3182 3182 3182 3182 3182
3150 3151 3152 3153 3153 3154 3154 3155 3156 3156 3157 3157 3157 3158 3159 3159 3160 3160 3161 3161 3162 3162 3163 3163 3163 3163 3164 3164 3164 3164 3164 3165 3165 3165 3165 3166 3166 3166 3166 3167 3167 3167 3167 3166 3166 3166 3166 3166 3167 3167 3167 3167 3168 3168 3168 3169 3169 3169 3170 3170 3171 3172 3172 3173 3173 3174 3174 3174 3175 3175 3176 3176 3177 3177 3177 3178 3178 3179 3179 3179 3179 3180 3180 3180 3180 3181 3181 3181 3181 3181 3181 3181 3181 3181 3181 3181 3182 3182 3182 3182 3182 3182 3182
3149 3150 3151 3152 3152 3153 3154 3154 3155 3155 3156 3156 3157 3157 3158 3159 3159 3159 3160 3161 3161 3162 3162 3162 3163 3163 3163 3164 3164 3164 3164 3164 3165 3165 3165 3165 3166 3166 3166 3166 3167 3167 3167 3167 3167 3167 3167 3167 3167 3167 3167 3167 3168 3168 3168 3169 3169 3169 3170 3170 3171 3171 3172 3172 3173 3173 3174 3174 3174 3175 3176 3176 3177 3177 3177 3178 3178 3179 3179 3179 3179 3179 3180 3180 3180 3180 3180 3181 3181 3181 3181 3181 3181 3181 3181 3181 3181 3182 3182 3182 3182 3182 3181
3149 3149 3150 3151 3151 3152 3153 3154 3154 3154 3155 3155 3156 3157 3157 3158 3159 3159 3159 3160 3160 3161 3161 3162 3162 3163 3163 3163 3164 3164 3164 3164 3165 3165 3165 3165 3165 3166 3166 3166 3166 3167 3167 3167 3167 3167 3167 3167 3167 3167 3168 3168 3168 3168 3168 3169 3169 3169 3170 3170 3171 3171 3172 3172 3173 3173 3174 3174 3174 3175 3175 3176 3176 3177 3177 3178 3178 3178 3179 3179 3179 3179 3179 3179 3180 3180 3180 3180 3180 3180 3181 3181 3181 3181 3181 3181 3181 3181 3181 3181 3181 3181 3181
3148 3149 3149 3150 3151 3151 3152 3153 3153 3154 3154 3155 3155 3156 3157 3157 3158 3158 3159 3159 3160 3160 3161 3161 3162 3162 3163 3163 3163 3164 3164 3164 3164 3165 3165 3165 3165 3166 3166 3166 3166 3166 3167 3167 3167 3167 3167 3167 3167 3168 3168 3168 3168 3168 3169 3169 3169 3169 3169 3170 3170 3171 3171 3172 3172 3173 3173 3174 3174 3174 3175 3175 3176 3176 3177 3177 3178 3178 3178 3178 3179 3179 3179 3179 3179 3180 3180 3180 3180 3180 3180 3180 3180 3180 3180 3181 3181 3181 3181 3181 3181 3181 3181
3147 3147 3148 3149 3150 3150 3151 3152 3152 3153 3154 3154 3155 3155 3156 3156 3157 3158 3158 3159 3159 3160 3160 3161 3161 3162 3162 3163 3163 3163 3164 3164 3164 3164 3165 3165 3165 3165 3166 3166 3166 3166 3166 3167 3167 3167 3167 3168 3168 3168 3168 3168 3169 3169 3169 3169 3169 3169 3169 3170 3170 3171 3171 3172 3172 3173 3173 3173 3174 3174 3174 3175 3175 3176 3176 3177 3177 3177 3178 3178 3178 3178 3179 3179 3179 3179 3179 3179 3180 3180 3180 3180 3180 3180 3180 3180 3180 3181 3181 3181 3181 3181 3181
3145 3146 3147 3148 3149 3149 3150 3151 3151 3152 3153 3154 3154 3154 3155 3156 3156 3157 3158 3158 3159 3159 3160 3160 3161 3161 3162 3162 3162 3163 3163 3164 3164 3164 3164 3165 3165 3165 3165 3166 3166 3166 3166 3167 3167 3167 3167 3168 3168 3168 3168 3169 3169 3169 3169 3169 3169 3169 3170 3170 3170 3171 3171 3171 3172 3172 3173 3173 3174 3174 3174 3174 3175 3175 3176 3176 3177 3177 3177 3178 3178 3178 3178 3179 3179 3179 3179 3179 3179 3179 3180 3180 3180 3180 3180 3180 3180 3180 3180 3180 3180 3180 3180
3144 3145 3146 3147 3148 3148 3149 3150 3150 3151 3152 3153 3153 3154 3154 3155 3156 3156 3157 3158 3158 3159 3159 3160 3160 3161 3161 3162 3162 3162 3163 3163 3164 3164 3164 3164 3165 3165 3165 3165 3166 3166 3166 3167 3167 3167 3168 3168 3168 3168 3168 3169 3169 3169 3169 3169 3170 3170 3170 3170 3170 3171 3171 3171 3172 3172 3172 3173 3173 3174 3174 3174 3175 3175 3175 3176 3176 3177 3177 3177 3178 3178 3178 3178 3178 3179 3179 3179 3179 3179 3179 3179 3179 3180 3180 3180 3180 3180 3180 3180 3180 3180 3180
3143 3144 3145 3146 3147 3147 3148 3149 3150 3151 3151 3152 3153 3153 3154 3154 3155 3156 3156 3157 3158 3158 3159 3159 3159 3160 3161 3161 3162 3162 3162 3163 3163 3164 3164 3164 3164 3165 3165 3165 3166 3166 3166 3167 3167 3167 3168 3168 3168 3168 3168 3169 3169 3169 3170 3170 3170 3170 3170 3170 3171 3171 3171 3171 3172 3172 3172 3173 3173 3173 3174 3174 3174 3175 3175 3175 3176 3176 3176 3177 3177 3177 3178 3178 3178 3178 3178 3178 3179 3179 3179 3179 3179 3179 3179 3179 3179 3179 3179 3179 3179 3179 3179
3142 3143 3144 3145 3146 3146 3147 3148 3149 3150 3150 3151 3152 3153 3153 3153 3154 3155 3156 3156 3157 3157 3158 3158 3159 3159 3160 3160 3161 3161 3162 3162 3163 3163 3163 3164 3164 3164 3165 3165 3165 3166 3166 3166 3167 3167 3167 3168 3168 3168 3168 3169 3169 3170 3170 3170 3170 3170 3170 3171 3171 3171 3171 3172 3172 3172 3172 3173 3173 3173 3174 3174 3174 3174 3175 3175 3175 3176 3176 3176 3177 3177 3177 3177 3178 3178 3178 3178 3178 3178 3178 3179 3179 3179 3179 3179 3179 3179 3179 3179 3179 3179 3179
3141 3142 3143 3144 3145 3146 3146 3147 3147 3149 3150 3150 3151 3152 3152 3153 3153 3154 3155 3155 3156 3157 3157 3158 3158 3159 3159 3160 3160 3161 3161 3162 3162 3163 3163 3163 3164 3164 3164 3165 3165 3166 3166 3166 3167 3167 3167 3168 3168 3168 3169 3169 3169 3170 3170 3171 3171 3171 3171 3171 3171 3171 3171 3172 3172 3172 3173 3173 3173 3173 3174 3174 3174 3174 3174 3175 3175 3175 3176 3176 3176 3176 3177 3177 3177 3177 3177 3177 3178 3178 3178 3178 3178 3178 3179 3179 3179 3179 3179 3179 3179 3179 3179
3140 3141 3141 3142 3143 3144 3145 3146 3146 3147 3148 3149 3150 3151 3151 3152 3153 3153 3154 3155 3155 3156 3156 3157 3157 3158 3159 3159 3160 3160 3161 3161 3162 3162 3162 3163 3163 3164 3164 3165 3165 3165 3166 3166 3166 3167 3167 3167 3168 3168 3169 3169 3169 3169 3170 3171 3171 3171 3171 3171 3171 3171 3172 3172 3172 3172 3173 3173 3173 3174 3174 3174 3174 3174 3174 3175 3175 3175 3175 3176 3176 3176 3176 3176 3176 3177 3177 3177 3177 3177 3177 3177 3178 3178 3178 3178 3178 3178 3178 3178 3178 3178 3178
3139 3139 3140 3141 3142 3143 3144 3144 3145 3146 3147 3148 3149 3150 3150 3151 3152 3152 3153 3154 3154 3155 3155 3156 3157 3157 3158 3158 3159 3160 3160 3161 3161 3161 3162 3162 3163 3163 3164 3164 3165 3165 3165 3166 3166 3166 3167 3167 3168 3168 3168 3169 3169 3169 3170 3171 3171 3171 3171 3171 3172 3172 3172 3172 3172 3173 3173 3173 3173 3174 3174 3174 3174 3174 3174 3175 3175 3175 3175 3175 3175 3176 3176 3176 3176 3176 3176 3176 3176 3177 3177 3177 3177 3177 3177 3177 3177 3177 3177 3177 3177 3177 3177
3138 3139 3139 3140 3141 3142 3143 3144 3144 3145 3146 3147 3148 3149 3149 3150 3151 3152 3152 3153 3154 3154 3155 3155 3156 3156 3157 3158 3158 3159 3159 3160 3160 3161 3161 3162 3162 3163 3164 3164 3164 3165 3165 3166 3166 3166 3167 3167 3167 3168 3168 3169 3169 3169 3170 3170 3171 3171 3171 3171 3172 3172 3172 3172 3173 3173 3173 3173 3173 3174 3174 3174 3174 3174 3174 3174 3175 3175 3175 3175 3175 3175 3175 3175 3175 3176 3176 3176 3176 3176 3176 3176 3176 3176 3177 3177 3177 3177 3177 3177 3177 3177 3176
3137 3137 3138 3139 3140 3141 3142 3143 3144 3144 3145 3146 3147 3148 3149 3149 3150 3151 3152 3152 3153 3154 3154 3155 3155 3156 3156 3157 3157 3158 3159 3159 3160 3160 3161 3161 3162 3162 3163 3164 3164 3164 3165 3165 3166 3166 3166 3167 3167 3167 3168 3168 3169 3169 3170 3170 3170 3171 3171 3171 3171 3172 3172 3172 3173 3173 3173 3173 3173 3174 3174 3174 3174 3174 3174 3174 3174 3175 3175 3175 3175 3175 3175 3175 3175 3175 3175 3175 3176 3176 3176 3176 3176 3176 3176 3176 3176 3176 3176 3176 3176 3176 3176
3136 3137 3137 3138 3139 3140 3141 3142 3142 3144 3145 3146 3146 3147 3148 3149 3149 3150 3151 3152 3152 3153 3154 3154 3154 3155 3155 3156 3157 3158 3158 3159 3159 3160 3160 3161 3161 3162 3162 3163 3164 3164 3165 3165 3165 3166 3166 3166 3167 3167 3167 3168 3168 3169 3169 3170 3170 3170 3170 3171 3171 3171 3172 3172 3173 3173 3173 3173 3174 3174 3174 3174 3174 3174 3174 3174 3174 3174 3174 3175 3175 3175 3175 3175 3175 3175 3175 3175 3175 3175 3175 3175 3175 3175 3175 3175 3175 3175 3175 3175 3175 3175 3175
3135 3136 3136 3137 3138 3139 3140 3140 3141 3142 3144 3145 3146 3146 3148 3148 3149 3149 3150 3151 3152 3152 3153 3153 3154 3154 3155 3156 3157 3157 3158 3158 3159 3159 3160 3160 3161 3161 3162 3163 3163 3164 3164 3165 3165 3165 3166 3166 3166 3167 3167 3168 3168 3169 3169 3169 3170 3170 3170 3170 3171 3171 3171 3172 3172 3173 3173 3173 3173 3174 3174 3174 3174 3174 3174 3174 3174 3174 3174 3174 3174 3174 3174 3174 3175 3175 3175 3175 3175 3175 3175 3175 3175 3175 3175 3175 3175 3175 3175 3175 3175 3175 3174
3134 3135 3136 3137 3137 3138 3139 3139 3140 3141 3142 3143 3144 3145 3146 3147 3148 3149 3149 3150 3151 3152 3152 3153 3153 3154 3154 3155 3156 3156 3157 3158 3158 3159 3159 3160 3160 3161 3162 3162 3163 3164 3164 3165 3165 3165 3166 3166 3166 3166 3167 3167 3168 3169 3169 3169 3169 3170 3170 3170 3170 3171 3171 3171 3172 3172 3172 3173 3173 3173 3173 3174 3174 3174 3174 3174 3174 3174 3174 3174 3174 3174 3174 3174 3174 3174 3174 3174 3174 3174 3174 3174 3174 3174 3174 3174 3174 3174 3174 3174 3174 3174 3174
3133 3134 3136 3137 3137 3137 3138 3139 3139 3140 3141 3142 3143 3144 3145 3146 3147 3148 3149 3150 3151 3151 3152 3152 3153 3153 3154 3154 3155 3156 3156 3157 3158 3158 3159 3159 3160 3160 3161 3162 3163 3164 3164 3165 3165 3165 3166 3166 3166 3166 3167 3167 3168 3168 3169 3169 3169 3169 3170 3170 3170 3170 3171 3171 3171 3172 3172 3172 3172 3173 3173 3173 3173 3174 3174 3174 3174 3174 3174 3174 3174 3174 3174 3174 3174 3174 3174 3174 3174 3174 3174 3174 3174 3174 3174 3174 3174 3174 3174 3174 3174 3174 3173
3132 3134 3135 3135 3136 3136 3137 3138 3139 3139 3140 3141 3142 3143 3144 3145 3146 3147 3149 3150 3151 3151 3151 3152 3152 3153 3153 3154 3154 3155 3156 3156 3157 3158 3158 3159 3159 3160 3161 3161 3162 3163 3164 3164 3165 3165 3166 3166 3166 3166 3166 3167 3168 3168 3169 3169 3169 3169 3170 3170 3170 3170 3170 3171 3171 3171 3171 3172 3172 3172 3172 3173 3173 3173 3173 3173 3173 3174 3174 3174 3174 3174 3173 3173 3174 3173 3173 3173 3173 3173 3173 3173 3173 3173 3173 3173 3173 3173 3173 3173 3173 3173 3173
3131 3133 3133 3134 3134 3135 3136 3137 3138 3139 3139 3140 3141 3142 3143 3144 3145 3147 3148 3149 3150 3150 3150 3151 3151 3152 3152 3153 3154 3154 3155 3156 3156 3157 3157 3158 3159 3159 3160 3161 3162 3162 3163 3164 3165 3165 3166 3166 3166 3166 3166 3167 3167 3168 3168 3169 3169 3169 3169 3170 3170 3170 3170 3170 3171 3171 3171 3171 3171 3172 3172 3172 3172 3173 3173 3173 3173 3173 3173 3173 3173 3173 3173 3173 3173 3173 3173 3173 3173 3173 3173 3173 3172 3172 3172 3172 3172 3172 3173 3173 3173 3173 3172
3130 3131 3131 3132 3133 3134 3134 3135 3136 3137 3139 3139 3141 3142 3143 3144 3145 3146 3148 3148 3148 3149 3149 3150 3150 3151 3152 3152 3153 3154 3154 3155 3155 3156 3157 3157 3158 3159 3160 3160 3161 3162 3162 3163 3164 3164 3165 3165 3166 3166 3166 3166 3167 3167 3168 3168 3169 3169 3169 3169 3170 3170 3170 3170 3170 3170 3171 3171 3171 3171 3171 3172 3172 3172 3172 3172 3172 3172 3172 3172 3172 3172 3172 3172 3172 3172 3172 3172 3172 3172 3172 3172 3172 3172 3172 3172 3172 3172 3172 3172 3172 3172 3172
3128 3129 3130 3131 3132 3133 3134 3134 3135 3136 3137 3139 3140 3141 3142 3143 3144 3145 3147 3147 3147 3147 3148 3149 3149 3150 3151 3151 3152 3153 3153 3154 3155 3155 3156 3157 3158 3158 3159 3160 3161 3161 3162 3162 3163 3164 3164 3165 3165 3165 3165 3166 3166 3166 3167 3167 3168 3168 3169 3169 3169 3169 3169 3169 3170 3170 3170 3170 3170 3171 3171 3171 3171 3171 3172 3172 3172 3172 3172 3172 3172 3172 3172 3172 3172 3172 3172 3172 3172 3172 3171 3171 3171 3171 3171 3171 3171 3171 3171 3171 3171 3171 3171
3126 3127 3129 3130 3131 3132 3133 3134 3134 3135 3136 3137 3139 3140 3141 3142 3143 3144 3145 3146 3146 3147 3147 3148 3149 3149 3150 3150 3151 3152 3153 3154 3154 3155 3156 3156 3157 3158 3159 3160 3161 3161 3161 3162 3162 3163 3163 3164 3164 3165 3165 3165 3165 3166 3166 3167 3167 3168 3168 3168 3168 3168 3169 3169 3169 3169 3169 3169 3170 3170 3170 3170 3171 3171 3171 3171 3171 3171 3171 3171 3171 3171 3171 3171 3171 3171 3171 3171 3171 3171 3171 3171 3170 3170 3170 3170 3170 3170 3170 3170 3170 3170 3170
3125 3127 3129 3130 3131 3132 3132 3134 3134 3135 3135 3136 3137 3139 3140 3141 3142 3143 3144 3145 3145 3145 3146 3147 3148 3148 3149 3150 3151 3152 3152 3153 3154 3154 3155 3156 3157 3158 3159 3160 3160 3161 3161 3161 3162 3162 3163 3164 3164 3164 3164 3164 3165 3165 3165 3166 3166 3167 3167 3167 3167 3167 3168 3168 3168 3168 3169 3169 3169 3169 3169 3169 3170 3170 3170 3170 3170 3170 3170 3170 3170 3170 3170 3170 3170 3170 3170 3170 3170 3170 3170 3170 3170 3170 3170 3170 3170 3170 3169 3169 3169 3169 3169
3126 3128 3129 3130 3130 3131 3132 3133 3134 3134 3134 3135 3136 3137 3139 3140 3142 3143 3144 3144 3145 3145 3145 3146 3147 3148 3149 3150 3150 3151 3152 3153 3153 3154 3154 3155 3156 3157 3158 3159 3160 3160 3160 3161 3161 3162 3162 3163 3163 3164 3164 3164 3164 3164 3165 3165 3166 3166 3166 3166 3166 3167 3167 3167 3167 3167 3168 3168 3168 3168 3169 3169 3169 3169 3169 3169 3169 3169 3170 3169 3169 3169 3169 3169 3169 3169 3169 3169 3169 3169 3169 3169 3169 3169 3169 3169 3169 3169 3169 3169 3169 3169 3169
3125 3126 3127 3128 3129 3129 3130 3130 3129 3130 3131 3133 3134 3136 3138 3140 3141 3142 3143 3143 3144 3144 3145 3145 3146 3148 3149 3149 3149 3150 3151 3152 3152 3153 3153 3154 3155 3156 3157 3158 3159 3159 3160 3160 3160 3161 3161 3162 3162 3163 3163 3163 3164 3164 3164 3164 3165 3165 3165 3165 3166 3166 3166 3166 3166 3166 3167 3167 3167 3167 3168 3168 3168 3168 3168 3169 3169 3169 3169 3169 3169 3169 3168 3168 3168 3168 3168 3168 3168 3168 3168 3168 3168 3168 3168 3168 3168 3168 3168 3168 3168 3168 3168
3123 3124 3125 3127 3128 3129 3129 3128 3127 3127 3128 3131 3134 3136 3139 3141 3142 3142 3142 3143 3143 3143 3143 3143 3144 3146 3147 3148 3148 3149 3151 3151 3151 3151 3152 3153 3154 3155 3156 3157 3158 3158 3159 3159 3160 3160 3160 3161 3161 3162 3162 3162 3163 3163 3164 3164 3164 3164 3165 3165 3165 3164 3164 3165 3165 3165 3166 3166 3166 3166 3166 3167 3167 3167 3167 3167 3167 3167 3167 3167 3167 3167 3167 3167 3167 3167 3167 3167 3167 3166 3166 3166 3167 3167 3167 3167 3167 3167 3167 3167 3167 3167 3167
3121 3122 3124 3126 3127 3128 3128 3127 3126 3125 3126 3129 3132 3134 3138 3143 3144 3144 3144 3143 3142 3140 3139 3140 3142 3144 3145 3146 3146 3147 3149 3149 3150 3151 3152 3153 3153 3154 3155 3156 3156 3157 3158 3158 3159 3159 3160 3160 3160 3161 3161 3161 3162 3162 3163 3163 3164 3164 3164 3164 3164 3164 3164 3164 3164 3164 3164 3164 3165 3165 3165 3165 3166 3166 3166 3166 3166 3166 3166 3166 3166 3166 3166 3166 3166 3166 3166 3166 3166 3166 3165 3165 3165 3166 3166 3166 3166 3166 3166 3166 3166 3166 3166
3120 3122 3123 3124 3125 3126 3127 3127 3126 3125 3125 3127 3129 3131 3135 3139 3143 3144 3143 3139 3136 3135 3136 3138 3140 3142 3143 3144 3144 3145 3147 3148 3149 3150 3151 3152 3152 3153 3154 3154 3155 3156 3157 3157 3158 3159 3159 3159 3160 3160 3160 3160 3160 3161 3162 3163 3163 3163 3163 3163 3163 3163 3163 3162 3163 3163 3163 3164 3164 3164 3164 3164 3164 3164 3164 3165 3165 3165 3165 3165 3165 3165 3165 3165 3165 3165 3165 3165 3165 3165 3165 3164 3164 3165 3165 3165 3165 3165 3165 3165 3165 3165 3164
3118 3120 3121 3123 3124 3125 3126 3128 3128 3127 3127 3128 3129 3129 3131 3133 3136 3138 3138 3137 3136 3136 3136 3136 3137 3139 3141 3142 3144 3145 3146 3147 3148 3149 3150 3151 3151 3152 3153 3153 3154 3155 3156 3156 3157 3158 3158 3159 3159 3159 3159 3159 3159 3160 3161 3162 3162 3162 3162 3162 3162 3162 3162 3161 3161 3162 3162 3162 3163 3163 3163 3163 3163 3163 3163 3163 3164 3164 3164 3164 3164 3164 3164 3164 3164 3164 3164 3164 3164 3164 3164 3164 3164 3164 3164 3164 3164 3164 3164 3164 3164 3164 3164
3115 3117 3119 3121 3123 3124 3125 3127 3128 3128 3129 3132 3132 3130 3131 3130 3130 3131 3134 3135 3135 3136 3136 3135 3136 3137 3139 3141 3143 3144 3146 3147 3148 3148 3149 3150 3150 3151 3152 3152 3153 3154 3154 3155 3156 3157 3157 3158 3158 3158 3158 3159 3159 3159 3159 3160 3161 3161 3161 3161 3161 3161 3161 3160 3160 3160 3161 3161 3161 3161 3162 3162 3162 3162 3162 3162 3162 3162 3162 3162 3162 3162 3162 3162 3162 3162 3162 3163 3163 3163 3163 3164 3163 3163 3163 3163 3164 3164 3164 3164 3163 3163 3162
3115 3116 3117 3120 3123 3124 3125 3127 3128 3128 3129 3131 3131 3130 3130 3130 3130 3130 3130 3131 3133 3134 3135 3135 3136 3137 3139 3140 3142 3144 3145 3146 3146 3147 3148 3149 3149 3150 3151 3151 3152 3153 3153 3154 3154 3155 3156 3156 3157 3157 3157 3157 3158 3158 3158 3159 3159 3159 3160 3160 3160 3160 3160 3160 3160 3160 3160 3160 3160 3160 3160 3160 3160 3160 3161 3161 3161 3160 3160 3160 3160 3160 3160 3160 3160 3160 3160 3161 3161 3162 3162 3163 3163 3163 3163 3163 3163 3163 3163 3162 3162 3162 3161
3115 3116 3117 3119 3122 3124 3125 3126 3127 3128 3129 3130 3131 3130 3130 3129 3130 3131 3131 3131 3132 3134 3135 3136 3137 3138 3139 3141 3142 3143 3144 3144 3145 3146 3146 3147 3148 3149 3150 3150 3151 3152 3152 3153 3154 3154 3154 3155 3155 3156 3156 3156 3157 3157 3157 3157 3158 3158 3158 3159 3159 3159 3159 3159 3159 3159 3159 3159 3159 3159 3159 3159 3159 3159 3159 3159 3159 3159 3159 3159 3159 3159 3158 3158 3158 3159 3159 3160 3160 3161 3161 3162 3162 3162 3162 3162 3162 3161 3161 3161 3160 3160 3159
3116 3117 3117 3119 3120 3123 3124 3124 3125 3127 3128 3130 3131 3131 3131 3131 3132 3132 3133 3133 3134 3135 3136 3137 3138 3139 3140 3141 3141 3142 3142 3143 3144 3144 3145 3146 3147 3148 3149 3149 3150 3151 3151 3152 3153 3153 3154 3154 3154 3154 3155 3155 3156 3156 3156 3156 3156 3156 3157 3157 3157 3158 3158 3158 3158 3158 3158 3158 3158 3158 3158 3158 3158 3158 3158 3158 3158 3158 3157 3157 3157 3156 3156 3157 3157 3158 3159 3159 3160 3160 3160 3160 3160 3160 3160 3160 3160 3160 3159 3159 3159 3158 3158
3116 3117 3118 3119 3120 3121 3122 3123 3124 3126 3128 3130 3131 3132 3133 3133 3134 3134 3134 3134 3135 3136 3137 3138 3139 3139 3140 3140 3141 3141 3142 3142 3143 3143 3144 3145 3146 3147 3148 3148 3149 3150 3150 3151 3151 3152 3153 3153 3153 3154 3154 3154 3154 3155 3155 3155 3155 3155 3155 3155 3156 3156 3156 3157 3157 3157 3157 3157 3157 3157 3157 3157 3157 3157 3157 3157 3157 3156 3155 3155 3155 3155 3156 3157 3157 3158 3158 3159 3159 3159 3159 3159 3159 3159 3158 3158 3158 3158 3158 3157 3157 3157 3156
3117 3117 3118 3119 3120 3121 3122 3123 3124 3126 3128 3129 3130 3131 3132 3133 3134 3134 3134 3135 3135 3136 3137 3138 3138 3138 3139 3139 3140 3140 3141 3141 3142 3143 3143 3144 3145 3145 3146 3147 3148 3149 3149 3150 3150 3151 3151 3152 3152 3153 3153 3154 3154 3154 3153 3153 3153 3154 3154 3154 3154 3154 3155 3155 3155 3155 3155 3156 3156 3156 3156 3156 3155 3155 3155 3155 3155 3154 3154 3154 3155 3155 3156 3156 3157 3157 3157 3157 3157 3157 3157 3157 3157 3156 3156 3156 3156 3156 3155 3155 3155 3155 3154
3116 3117 3119 3120 3121 3122 3122 3123 3124 3125 3126 3128 3129 3130 3131 3132 3132 3133 3134 3134 3135 3135 3136 3136 3137 3137 3138 3138 3139 3139 3140 3140 3141 3142 3142 3143 3144 3144 3145 3146 3147 3147 3148 3149 3149 3149 3150 3151 3151 3152 3152 3152 3152 3152 3152 3152 3152 3152 3152 3153 3153 3153 3153 3153 3153 3154 3154 3154 3154 3154 3154 3154 3154 3154 3154 3153 3153 3153 3154 3154 3154 3155 3155 3155 3156 3156 3156 3156 3156 3155 3155 3155 3155 3154 3154 3154 3154 3154 3154 3154 3154 3153 3153
3115 3117 3118 3119 3120 3121 3122 3122 3123 3124 3125 3126 3128 3129 3129 3130 3131 3131 3132 3133 3133 3134 3135 3135 3136 3136 3137 3137 3138 3138 3139 3139 3140 3140 3141 3142 3142 3143 3144 3144 3145 3146 3147 3147 3148 3148 3149 3149 3150 3150 3151 3151 3151 3151 3151 3151 3151 3151 3151 3151 3151 3151 3151 3151 3151 3151 3151 3151 3151 3151 3151 3152 3152 3152 3152 3152 3152 3153 3153 3153 3154 3154 3154 3154 3154 3154 3154 3154 3154 3154 3154 3154 3153 3153 3153 3152 3152 3152 3152 3152 3151 3151 3151
3114 3115 3116 3117 3119 3119 3120 3121 3122 3123 3124 3125 3126 3127 3128 3129 3130 3130 3131 3132 3132 3133 3134 3134 3134 3135 3135 3135 3136 3137 3137 3138 3138 3139 3139 3140 3141 3142 3142 3143 3144 3145 3145 3146 3146 3147 3148 3148 3149 3149 3149 3149 3149 3149 3149 3149 3149 3150 3150 3150 3150 3150 3150 3150 3149 3149 3149 3149 3149 3149 3150 3150 3151 3151 3151 3151 3152 3152 3152 3152 3152 3153 3153 3153 3153 3153 3153 3152 3152 3152 3152 3152 3152 3151 3151 3151 3150 3150 3150 3150 3149 3149 3149
3113 3114 3115 3116 3117 3118 3119 3119 3120 3121 3122 3124 3125 3126 3127 3128 3129 3129 3130 3131 3132 3133 3133 3134 3134 3134 3134 3134 3134 3135 3136 3136 3137 3138 3138 3139 3139 3140 3141 3142 3143 3143 3144 3144 3145 3146 3146 3147 3147 3148 3148 3148 3148 3148 3148 3148 3148 3148 3148 3149 3148 3148 3148 3148 3147 3147 3147 3147 3148 3149 3149 3149 3149 3149 3150 3150 3150 3150 3151 3151 3151 3151 3151 3151 3151 3151 3151 3151 3150 3150 3150 3150 3150 3149 3149 3149 3149 3149 3148 3148 3148 3148 3147
3113 3114 3114 3114 3115 3116 3117 3118 3119 3120 3121 3122 3123 3124 3125 3126 3127 3129 3129 3130 3131 3132 3133 3133 3133 3133 3133 3133 3133 3134 3134 3135 3135 3136 3136 3137 3138 3139 3139 3140 3141 3142 3143 3143 3144 3144 3145 3145 3145 3146 3146 3146 3146 3146 3146 3146 3147 3147 3147 3147 3147 3147 3147 3146 3145 3145 3146 3146 3147 3147 3148 3148 3148 3148 3148 3149 3149 3149 3149 3149 3149 3149 3149 3149 3149 3149 3149 3149 3149 3149 3148 3148 3148 3148 3148 3148 3147 3147 3147 3146 3146 3146 3146
3112 3113 3114 3114 3114 3114 3115 3116 3117 3118 3119 3120 3122 3123 3124 3125 3126 3127 3128 3129 3130 3131 3131 3131 3132 3132 3132 3132 3132 3133 3133 3134 3134 3135 3135 3136 3136 3137 3138 3139 3140 3140 3141 3142 3142 3143 3143 3144 3144 3144 3144 3144 3144 3144 3144 3145 3145 3145 3145 3145 3145 3144 3144 3143 3143 3144 3144 3145 3145 3146 3146 3146 3147 3147 3147 3147 3148 3148 3148 3148 3148 3148 3148 3148 3148 3148 3147 3147 3147 3147 3147 3147 3146 3146 3146 3146 3145 3145 3145 3144 3144 3144 3144
3111 3112 3113 3113 3114 3114 3114 3115 3115 3117 3118 3119 3120 3121 3122 3123 3124 3125 3126 3127 3128 3129 3129 3129 3130 3130 3131 3131 3131 3132 3132 3133 3133 3133 3134 3134 3135 3136 3137 3138 3139 3139 3140 3140 3141 3141 3142 3142 3142 3142 3142 3143 3143 3143 3143 3143 3143 3143 3143 3143 3143 3142 3141 3142 3142 3143 3143 3144 3144 3144 3145 3145 3145 3146 3146 3146 3146 3146 3146 3146 3146 3146 3146 3146 3146 3146 3146 3146 3145 3145 3145 3145 3145 3144 3144 3144 3144 3144 3143 3143 3142 3142 3142
3109 3111 3112 3112 3113 3113 3113 3114 3114 3115 3116 3117 3118 3119 3120 3121 3122 3123 3124 3125 3126 3127 3127 3128 3128 3129 3129 3129 3130 3130 3131 3131 3132 3132 3132 3133 3134 3134 3135 3136 3137 3138 3138 3139 3139 3140 3140 3140 3140 3140 3141 3141 3141 3141 3141 3141 3141 3141 3141 3141 3140 3140 3140 3141 3141 3142 3142 3143 3143 3143 3144 3144 3144 3144 3144 3144 3144 3145 3145 3145 3145 3144 3144 3145 3145 3144 3144 3144 3144 3144 3144 3143 3143 3143 3143 3142 3142 3142 3142 3141 3140 3140 3139
3108 3109 3110 3111 3112 3112 3112 3113 3114 3114 3115 3116 3117 3118 3119 3119 3120 3121 3122 3123 3124 3125 3125 3126 3126 3127 3127 3128 3128 3128 3129 3129 3130 3130 3131 3132 3133 3133 3134 3135 3136 3136 3137 3137 3138 3138 3138 3138 3139 3139 3139 3139 3139 3139 3139 3139 3139 3139 3139 3139 3139 3139 3139 3140 3140 3140 3141 3142 3142 3142 3142 3143 3143 3143 3143 3143 3143 3143 3143 3143 3143 3143 3143 3143 3143 3143 3143 3143 3142 3142 3142 3142 3141 3141 3141 3140 3140 3140 3140 3139 3139 3138 3138
3106 3107 3109 3109 3110 3111 3111 3112 3112 3113 3114 3114 3115 3116 3117 3118 3119 3120 3121 3121 3122 3123 3123 3124 3124 3125 3125 3126 3126 3127 3127 3128 3129 3129 3130 3130 3131 3132 3133 3134 3134 3135 3135 3136 3136 3136 3136 3136 3137 3137 3137 3137 3137 3137 3137 3138 3138 3138 3138 3138 3138 3138 3138 3139 3139 3139 3140 3140 3140 3140 3140 3141 3141 3141 3141 3141 3141 3141 3141 3141 3141 3141 3141 3141 3141 3141 3141 3140 3140 3140 3139 3139 3139 3139 3139 3139 3139 3139 3138 3138 3137 3137 3136
3105 3106 3107 3108 3109 3109 3110 3110 3111 3111 3112 3113 3114 3115 3116 3117 3118 3119 3119 3120 3121 3121 3122 3122 3122 3123 3123 3124 3124 3125 3125 3126 3127 3128 3129 3129 3130 3131 3132 3133 3133 3134 3134 3134 3135 3135 3134 3134 3134 3135 3135 3135 3135 3135 3135 3136 3136 3136 3136 3136 3136 3136 3136 3137 3137 3138 3138 3138 3139 3139 3139 3139 3139 3139 3139 3139 3139 3139 3139 3139 3139 3139 3139 3139 3139 3139 3139 3139 3138 3138 3138 3138 3137 3137 3137 3137 3137 3136 3136 3136 3135 3135 3135
3104 3104 3105 3106 3107 3108 3109 3109 3109 3110 3110 3111 3113 3114 3114 3115 3116 3117 3118 3119 3119 3119 3120 3120 3121 3121 3122 3122 3123 3123 3124 3125 3125 3127 3127 3128 3129 3130 3131 3131 3132 3132 3132 3133 3133 3133 3133 3133 3133 3133 3133 3133 3133 3133 3134 3134 3134 3134 3134 3134 3134 3134 3134 3135 3135 3136 3136 3136 3136 3136 3136 3137 3137 3137 3137 3137 3137 3137 3137 3137 3137 3137 3137 3137 3137 3137 3137 3136 3136 3136 3136 3136 3136 3135 3135 3135 3134 3134 3134 3134 3134 3133 3133
3102 3103 3104 3104 3105 3106 3107 3107 3108 3108 3109 3110 3111 3112 3113 3114 3115 3115 3116 3117 3117 3118 3118 3119 3119 3119 3120 3120 3121 3122 3123 3124 3124 3125 3126 3127 3128 3129 3129 3129 3130 3130 3130 3131 3131 3131 3131 3131 3131 3131 3131 3131 3131 3131 3131 3132 3132 3132 3132 3132 3132 3133 3133 3133 3133 3134 3134 3134 3134 3134 3134 3134 3134 3134 3134 3135 3135 3135 3135 3135 3135 3135 3135 3135 3135 3134 3134 3134 3134 3134 3134 3134 3133 3133 3132 3132 3132 3132 3131 3132 3132 3131 3131
3101 3101 3102 3103 3104 3104 3105 3105 3106 3106 3107 3108 3109 3110 3111 3112 3113 3114 3114 3115 3115 3116 3116 3117 3117 3118 3118 3119 3119 3120 3121 3122 3123 3123 3124 3125 3126 3127 3127 3128 3128 3128 3129 3129 3129 3129 3129 3129 3129 3129 3129 3129 3129 3129 3129 3129 3129 3129 3130 3130 3130 3130 3131 3131 3131 3131 3132 3132 3132 3132 3132 3132 3132 3132 3132 3132 3132 3133 3133 3133 3133 3133 3133 3133 3133 3133 3132 3132 3132 3132 3132 3132 3131 3131 3130 3129 3129 3129 3129 3129 3129 3129 3129
3099 3100 3100 3101 3102 3103 3103 3104 3104 3104 3105 3106 3107 3108 3109 3110 3111 3112 3112 3113 3113 3114 3114 3115 3115 3116 3117 3117 3118 3119 3119 3120 3121 3121 3122 3123 3124 3124 3125 3125 3126 3126 3127 3127 3127 3127 3127 3127 3127 3127 3127 3127 3127 3127 3127 3127 3127 3127 3128 3128 3128 3129 3129 3129 3129 3129 3129 3129 3129 3129 3129 3129 3129 3129 3130 3130 3130 3130 3130 3130 3130 3130 3130 3130 3130 3130 3130 3130 3130 3129 3129 3129 3129 3129 3128 3128 3127 3126 3126 3127 3127 3127 3126
3097 3098 3098 3099 3100 3101 3101 3102 3102 3103 3103 3104 3105 3106 3107 3108 3109 3109 3110 3110 3111 3112 3112 3113 3114 3114 3115 3115 3116 3117 3117 3118 3119 3119 3120 3121 3122 3123 3123 3124 3124 3124 3125 3125 3125 3126 3126 3125 3125 3125 3125 3125 3125 3125 3125 3125 3125 3125 3125 3126 3126 3126 3127 3127 3127 3127 3127 3127 3127 3127 3127 3127 3127 3127 3127 3128 3128 3128 3128 3128 3128 3128 3128 3128 3128 3128 3128 3128 3128 3128 3127 3127 3127 3127 3126 3126 3125 3124 3124 3124 3124 3124 3124